Simultaneous Nadir Overpasses (SNOs) Predictions

Prediction of SNOs between GOES-16 and AQUA Satellite Orbit:

Table of predicted SNOs for the next 14.0 days since TLE Epoch: 9/16/2023
Index Date Time (GOES-16) GOES-16 Lat,Lon AQUA Lat,Lon Distance(km) Time Diff (sec)
1 09/16/2023 06:53:29 0.05, -75.21 0.06, -75.24 4.15 80
2 09/18/2023 06:38:57 0.05, -75.22 -0.67, -71.69 400.12 80
3 09/18/2023 18:59:44 -0.05, -75.23 -0.38, -76.74 171.71 80
4 09/20/2023 18:47:53 -0.05, -75.24 0.41, -73.19 233.03 80
5 09/21/2023 07:08:31 0.05, -75.23 0.66, -78.19 336.09 80
6 09/23/2023 06:53:58 0.04, -75.25 -0.11, -74.64 68.90 80
7 09/25/2023 06:36:44 0.03, -75.26 -0.87, -71.09 474.33 80
8 09/25/2023 18:57:31 -0.03, -75.27 -0.21, -76.12 97.20 80
9 09/27/2023 18:45:36 -0.02, -75.29 0.54, -72.56 309.80 80
10 09/28/2023 07:06:15 0.02, -75.29 0.50, -77.57 258.40 80
